STARLINK-33774, 63721

Orbit data source: Space-Track

STARLINK-33774, 63721 is a payload satellite owned by SpaceX/Seattle (US) in LEO that was launched on Mon, 28 Apr 2025 UTC via an FALCON 9 launch vehicle from the Air Force Western Test Range (AFWTR). Payload-class satellites include a variety of spacecraft equipped with specific instruments for various scientific and technological missions. These include communications satellites like Starlink; space stations such as the ISS; scientific satellites like the Hubble; Earth observation satellites from companies like Planet Labs, Umbra, and HawkEye 360; GPS; miniature CubeSats for education and research; and military/defense satellites.

Loading next visibility...
Identifier
63721, 2025-087AA
Orbit
LEO
Country
Flag of USUS
Related business
Manufacturer
SpaceX/Seattle
Mission
Operational Commercial Communications
Bus & Motor
STARLINK V2MO, Unknown motor
Mass
575 kg wet, ~530 kg dry
Launch date (UTC)
2025-04-28 (8 months ago)
Launch vehicle
FALCON 9
Launch site
Air Force Western Test Range (AFWTR)
Object type
Payload
Rocket body
Debris
Shape & HBR
Box + 2 Pan, 17.7 m
Radar Cross Section
36.964 m², Large (>1 m²)

Expand to show TLE details & history
Last TLE update: 17 hours ago

TLE from 17 hours ago
0 STARLINK-33774
1 63721U 25087AA  25348.88842573  .00020992  00000-0  71900-3 0  9990
2 63721  53.1585 253.6297 0001482  67.1209 292.9948 15.30193512 36217
Epoch: 2025-12-14T21:19Z
TLE epoch observation values (Epoch: 2025-12-14T21:19:19.983Z)
Latitude
-0.00001°
Longitude
-149.99845°
Altitude
475.737 km
Speed
7.629 km/s
True Right ascension
16h 54m 31s
True Declination
0° 00' 00"
Sunlit
Object was in daylight at epoch
Visualization orbit readout
Latitude
Unknown
Longitude
Unknown
Altitude
Unknown
Speed
Unknown
Apparent Right ascension
Unknown
Apparent Declination
Unknown
Sunlit
N/A
Visualization observer readout
Local Sidereal Time
13:21:24
Azimuth
Unknown
Elevation
Unknown
Doppler factor
Unknown
Orbital elements
Apogee altitude
476.507 km
Perigee altitude
474.475 km
Semi-major axis
6,853.628 km
Eccentricity
0.00015
Inclination
53.1585°
RAAN
253.6297°
Arg. of periapsis
67.1209°
True anomaly
292.97917°
Mean anomaly
292.9948°
Eccentric anomaly
292.98698°
Mean motion
3.82527 °/min
Orbital period
94.11 mins
BSTAR
0.000719
Loading maneuver chart data...
Computing Atmospheric mass density...
Loading historical data...
Loading historical data...
Loading historical data...
Loading historical data...
Loading historical data...
Loading historical data...
Loading historical data...

Documentation

Showing up to 5 results
|